Private Wetterstation Wechselburg
Wetterdaten: Freitag, 02.12.2011
Datum Zeit Temp. +2m Bodentemp. Temp.+5cm Temp. Wind Windchill X Diff Temp. Feuchte +2m Feuchte +5cm Sonnenschein Luftdruck Regen Wind Richtung Richtung Sonnenschein UV Taupunkt Windchill Windben
02.12.2011 00:00 11,3 C 10,4 C 10,7 C 11,0 C 10,5 C 0,0 C 69 % 73 % 0 % 1015,2 hPa 0,0 l/m 7,6 km/h (2 Bft) S 180 0 min 0,0 UV-I 5,8 C 10,5 C 15,3 km/h (3 Bft)
02.12.2011 00:04 11,3 C 10,4 C 10,7 C 9,9 C 10,4 C 0,0 C 67 % 73 % 0 % 1015,2 hPa 0,0 l/m 8,5 km/h (2 Bft) S-SO 157 0 min 0,0 UV-I 5,4 C 10,4 C 7,6 km/h (2 Bft)
02.12.2011 00:09 11,4 C 10,5 C 10,7 C 11,1 C 10,3 C 0,0 C 67 % 72 % 0 % 1015,2 hPa 0,0 l/m 8,9 km/h (2 Bft) S 180 0 min 0,0 UV-I 5,5 C 10,3 C 16,1 km/h (3 Bft)
02.12.2011 00:14 11,3 C 10,5 C 10,7 C 11,1 C 10,4 C 0,0 C 67 % 72 % 0 % 1015,2 hPa 0,0 l/m 8,5 km/h (2 Bft) S-SO 157 0 min 0,0 UV-I 5,4 C 10,4 C 12,2 km/h (2 Bft)
02.12.2011 00:19 11,4 C 10,5 C 10,8 C 11,1 C 10,4 C 0,0 C 67 % 72 % 0 % 1014,8 hPa 0,0 l/m 8,2 km/h (2 Bft) W-SW 247 0 min 0,0 UV-I 5,5 C 10,4 C 14,3 km/h (3 Bft)
02.12.2011 00:25 11,3 C 10,5 C 10,7 C 11,1 C 10,6 C 0,0 C 67 % 72 % 0 % 1014,8 hPa 0,0 l/m 7,4 km/h (2 Bft) W-SW 247 0 min 0,0 UV-I 5,4 C 10,6 C 6,9 km/h (2 Bft)
02.12.2011 00:30 11,3 C 10,5 C 10,6 C 11,1 C 10,7 C 0,0 C 68 % 73 % 0 % 1014,8 hPa 0,0 l/m 6,8 km/h (2 Bft) S 180 0 min 0,0 UV-I 5,6 C 10,7 C 6,6 km/h (2 Bft)
02.12.2011 00:35 11,2 C 10,5 C 10,7 C 11,0 C 10,6 C 0,0 C 68 % 73 % 0 % 1014,8 hPa 0,0 l/m 5,5 km/h (1 Bft) S 180 0 min 0,0 UV-I 5,5 C 10,6 C 4,8 km/h (1 Bft)
02.12.2011 00:40 11,2 C 10,5 C 10,5 C 11,1 C 10,8 C 0,0 C 68 % 73 % 0 % 1014,4 hPa 0,0 l/m 4,5 km/h (1 Bft) S 180 0 min 0,0 UV-I 5,5 C 10,8 C 3,4 km/h (1 Bft)
02.12.2011 00:45 11,1 C 10,5 C 10,5 C 11,0 C 10,7 C 0,0 C 68 % 73 % 0 % 1014,4 hPa 0,0 l/m 4,0 km/h (1 Bft) S 180 0 min 0,0 UV-I 5,4 C 10,7 C 4,7 km/h (1 Bft)
02.12.2011 00:50 11,2 C 10,5 C 10,5 C 11,0 C 10,6 C 0,0 C 68 % 73 % 0 % 1014,4 hPa 0,0 l/m 5,3 km/h (1 Bft) S-SO 157 0 min 0,0 UV-I 5,5 C 10,6 C 9,2 km/h (2 Bft)
02.12.2011 00:55 11,2 C 10,6 C 10,5 C 10,9 C 10,2 C 0,0 C 68 % 74 % 0 % 1014,4 hPa 0,0 l/m 6,0 km/h (2 Bft) S-SO 157 0 min 0,0 UV-I 5,5 C 10,2 C 3,2 km/h (1 Bft)
02.12.2011 01:00 11,1 C 10,6 C 10,3 C 10,8 C 10,2 C 0,0 C 68 % 75 % 0 % 1014,6 hPa 0,0 l/m 5,5 km/h (1 Bft) S 180 0 min 0,0 UV-I 5,4 C 10,2 C 5,5 km/h (1 Bft)
02.12.2011 01:07 11,0 C 10,6 C 10,2 C 10,6 C 9,9 C 0,0 C 69 % 75 % 0 % 1014,6 hPa 0,0 l/m 5,1 km/h (1 Bft) N 0 0 min 0,0 UV-I 5,5 C 9,6 C 6,4 km/h (2 Bft)
02.12.2011 01:20 11,1 C 10,6 C 10,3 C 10,7 C 9,8 C 0,0 C 68 % 75 % 0 % 1013,8 hPa 0,0 l/m 6,4 km/h (2 Bft) SW 225 0 min 0,0 UV-I 5,4 C 9,1 C 11,1 km/h (2 Bft)
02.12.2011 01:25 11,1 C 10,6 C 10,3 C 10,7 C 9,9 C 0,0 C 68 % 74 % 0 % 1013,8 hPa 0,0 l/m 6,4 km/h (2 Bft) SW 225 0 min 0,0 UV-I 5,4 C 9,3 C 7,9 km/h (2 Bft)
02.12.2011 01:30 11,1 C 10,6 C 10,3 C 10,7 C 9,9 C 0,0 C 68 % 74 % 0 % 1013,8 hPa 0,0 l/m 6,3 km/h (2 Bft) S-SO 157 0 min 0,0 UV-I 5,4 C 9,3 C 7,7 km/h (2 Bft)
02.12.2011 01:35 11,1 C 10,6 C 10,3 C 10,8 C 10,3 C 0,0 C 68 % 74 % 0 % 1013,8 hPa 0,0 l/m 5,3 km/h (1 Bft) NW 315 0 min 0,0 UV-I 5,4 C 10,3 C 3,2 km/h (1 Bft)
02.12.2011 01:40 10,9 C 10,6 C 10,3 C 10,8 C 10,7 C 0,0 C 68 % 74 % 0 % 1014,4 hPa 0,0 l/m 4,7 km/h (1 Bft) SW 225 0 min 0,0 UV-I 5,2 C 10,7 C 5,3 km/h (1 Bft)
02.12.2011 01:45 10,9 C 10,6 C 10,3 C 10,7 C 10,4 C 0,0 C 68 % 74 % 0 % 1014,4 hPa 0,0 l/m 5,0 km/h (1 Bft) S 180 0 min 0,0 UV-I 5,2 C 10,4 C 7,6 km/h (2 Bft)
02.12.2011 01:50 10,9 C 10,6 C 10,3 C 10,8 C 10,6 C 0,0 C 68 % 73 % 0 % 1014,4 hPa 0,0 l/m 5,0 km/h (1 Bft) NW 315 0 min 0,0 UV-I 5,2 C 10,6 C 4,3 km/h (1 Bft)
02.12.2011 01:55 10,9 C 10,6 C 10,3 C 10,8 C 10,7 C 0,0 C 68 % 73 % 0 % 1014,4 hPa 0,0 l/m 3,2 km/h (1 Bft) O-SO 112 0 min 0,0 UV-I 5,2 C 10,7 C 2,6 km/h (1 Bft)
02.12.2011 02:00 10,8 C 10,6 C 10,1 C 10,8 C 10,7 C 0,0 C 68 % 73 % 0 % 1014,4 hPa 0,0 l/m 2,9 km/h (1 Bft) S-SO 157 0 min 0,0 UV-I 5,1 C 10,7 C 7,9 km/h (2 Bft)
02.12.2011 02:10 11,1 C 10,6 C 10,4 C 11,0 C 10,9 C 0,0 C 67 % 72 % 0 % 1014,4 hPa 0,0 l/m 4,8 km/h (1 Bft) N 0 0 min 0,0 UV-I 5,2 C 10,9 C 3,9 km/h (1 Bft)
02.12.2011 02:20 11,3 C 10,7 C 10,7 C 11,1 C 10,6 C 0,0 C 66 % 71 % 0 % 1013,3 hPa 0,0 l/m 7,2 km/h (2 Bft) S-SO 157 0 min 0,0 UV-I 5,2 C 10,6 C 8,5 km/h (2 Bft)
02.12.2011 02:25 11,3 C 10,7 C 10,7 C 11,1 C 10,2 C 0,0 C 66 % 71 % 0 % 1013,3 hPa 0,0 l/m 8,7 km/h (2 Bft) O-SO 112 0 min 0,0 UV-I 5,2 C 10,2 C 18,3 km/h (3 Bft)
02.12.2011 02:30 11,5 C 10,7 C 10,6 C 11,2 C 10,4 C 0,0 C 66 % 71 % 0 % 1013,3 hPa 0,0 l/m 8,4 km/h (2 Bft) NW 315 0 min 0,0 UV-I 5,4 C 10,4 C 6,3 km/h (2 Bft)
02.12.2011 02:35 11,5 C 10,7 C 10,7 C 11,2 C 10,5 C 0,0 C 66 % 71 % 0 % 1013,3 hPa 0,0 l/m 8,0 km/h (2 Bft) S 180 0 min 0,0 UV-I 5,4 C 10,5 C 8,4 km/h (2 Bft)
02.12.2011 02:40 11,5 C 10,7 C 10,7 C 11,3 C 10,6 C 0,0 C 66 % 71 % 0 % 1013,4 hPa 0,0 l/m 8,4 km/h (2 Bft) S-SO 157 0 min 0,0 UV-I 5,4 C 10,6 C 14,8 km/h (3 Bft)
02.12.2011 02:45 11,5 C 10,7 C 10,8 C 11,3 C 10,7 C 0,0 C 65 % 71 % 0 % 1013,4 hPa 0,0 l/m 9,0 km/h (2 Bft) S-SW 202 0 min 0,0 UV-I 5,2 C 10,7 C 16,6 km/h (3 Bft)
02.12.2011 02:50 11,5 C 10,7 C 10,8 C 11,2 C 10,7 C 0,0 C 65 % 70 % 0 % 1013,4 hPa 0,0 l/m 9,7 km/h (2 Bft) SO 135 0 min 0,0 UV-I 5,2 C 10,7 C 18,2 km/h (3 Bft)
02.12.2011 02:55 11,7 C 10,7 C 10,9 C 11,4 C 10,7 C 0,0 C 65 % 70 % 0 % 1013,4 hPa 0,0 l/m 10,3 km/h (2 Bft) S-SO 157 0 min 0,0 UV-I 5,3 C 10,7 C 9,5 km/h (2 Bft)
02.12.2011 03:00 11,6 C 10,7 C 10,8 C 11,4 C 10,9 C 0,0 C 65 % 70 % 0 % 1013,5 hPa 0,0 l/m 8,7 km/h (2 Bft) N-NO 22 0 min 0,0 UV-I 5,2 C 10,9 C 21,1 km/h (4 Bft)
02.12.2011 03:10 11,5 C 10,7 C 10,8 C 11,4 C 10,8 C 0,0 C 65 % 70 % 0 % 1013,5 hPa 0,0 l/m 8,4 km/h (2 Bft) N 0 0 min 0,0 UV-I 5,2 C 10,8 C 4,7 km/h (1 Bft)
02.12.2011 03:20 11,5 C 10,7 C 10,8 C 11,4 C 11,1 C 0,0 C 66 % 70 % 0 % 1013,1 hPa 0,0 l/m 6,3 km/h (2 Bft) S 180 0 min 0,0 UV-I 5,4 C 11,1 C 10,5 km/h (2 Bft)
02.12.2011 03:25 11,4 C 10,7 C 10,9 C 11,3 C 11,1 C 0,0 C 66 % 70 % 0 % 1013,1 hPa 0,0 l/m 6,3 km/h (2 Bft) O 90 0 min 0,0 UV-I 5,3 C 11,1 C 8,2 km/h (2 Bft)
02.12.2011 03:30 11,5 C 10,7 C 10,8 C 11,4 C 11,2 C 0,0 C 66 % 70 % 0 % 1013,1 hPa 0,0 l/m 5,8 km/h (2 Bft) S-SO 157 0 min 0,0 UV-I 5,4 C 11,2 C 13,0 km/h (3 Bft)
02.12.2011 03:35 11,5 C 10,8 C 10,9 C 11,4 C 11,2 C 0,0 C 66 % 70 % 0 % 1013,1 hPa 0,0 l/m 5,8 km/h (2 Bft) W-SW 247 0 min 0,0 UV-I 5,4 C 11,2 C 9,3 km/h (2 Bft)
02.12.2011 03:40 11,5 C 10,8 C 10,8 C 11,3 C 11,0 C 0,0 C 66 % 70 % 0 % 1013,3 hPa 0,0 l/m 6,8 km/h (2 Bft) S 180 0 min 0,0 UV-I 5,4 C 11,0 C 4,8 km/h (1 Bft)
02.12.2011 03:45 11,4 C 10,8 C 10,8 C 11,3 C 11,1 C 0,0 C 66 % 71 % 0 % 1013,3 hPa 0,0 l/m 6,6 km/h (2 Bft) SO 135 0 min 0,0 UV-I 5,3 C 11,1 C 15,3 km/h (3 Bft)
02.12.2011 03:50 11,3 C 10,8 C 10,8 C 11,3 C 11,2 C 0,0 C 67 % 71 % 0 % 1013,3 hPa 0,0 l/m 5,3 km/h (1 Bft) SO 135 0 min 0,0 UV-I 5,4 C 11,2 C 4,8 km/h (1 Bft)
02.12.2011 03:55 11,3 C 10,8 C 10,9 C 11,2 C 11,0 C 0,0 C 67 % 71 % 0 % 1013,3 hPa 0,0 l/m 6,3 km/h (2 Bft) W-SW 247 0 min 0,0 UV-I 5,4 C 11,0 C 7,9 km/h (2 Bft)
02.12.2011 04:00 11,5 C 10,8 C 10,8 C 11,3 C 10,9 C 0,0 C 67 % 71 % 0 % 1012,6 hPa 0,0 l/m 7,1 km/h (2 Bft) S 180 0 min 0,0 UV-I 5,6 C 10,9 C 10,3 km/h (2 Bft)
02.12.2011 04:10 11,5 C 10,8 C 10,9 C 11,4 C 11,1 C 0,0 C 68 % 72 % 0 % 1012,6 hPa 0,0 l/m 6,6 km/h (2 Bft) N 0 0 min 0,0 UV-I 5,8 C 11,1 C 8,0 km/h (2 Bft)
02.12.2011 04:20 11,5 C 10,8 C 10,9 C 11,3 C 10,9 C 0,0 C 68 % 72 % 0 % 1013,1 hPa 0,0 l/m 7,4 km/h (2 Bft) S 180 0 min 0,0 UV-I 5,8 C 10,9 C 7,9 km/h (2 Bft)
02.12.2011 04:25 11,5 C 10,8 C 10,9 C 11,3 C 10,7 C 0,0 C 68 % 72 % 0 % 1013,1 hPa 0,0 l/m 8,0 km/h (2 Bft) SW 225 0 min 0,0 UV-I 5,8 C 10,7 C 9,7 km/h (2 Bft)
02.12.2011 04:30 11,4 C 10,8 C 10,9 C 11,2 C 10,9 C 0,0 C 68 % 73 % 0 % 1013,1 hPa 0,0 l/m 7,4 km/h (2 Bft) S 180 0 min 0,0 UV-I 5,7 C 10,9 C 4,2 km/h (1 Bft)
02.12.2011 04:35 11,5 C 10,8 C 11,1 C 11,4 C 11,1 C 0,0 C 69 % 73 % 0 % 1013,1 hPa 0,0 l/m 6,9 km/h (2 Bft) W-NW 292 0 min 0,0 UV-I 6,0 C 11,1 C 8,4 km/h (2 Bft)
02.12.2011 04:40 11,5 C 10,8 C 11,0 C 11,4 C 10,9 C 0,0 C 69 % 73 % 0 % 1012,0 hPa 0,0 l/m 7,9 km/h (2 Bft) S-SO 157 0 min 0,0 UV-I 6,0 C 10,9 C 10,9 km/h (2 Bft)
02.12.2011 04:45 11,6 C 10,9 C 11,0 C 11,5 C 11,4 C 0,0 C 69 % 73 % 0 % 1012,0 hPa 0,0 l/m 6,3 km/h (2 Bft) SO 135 0 min 0,0 UV-I 6,1 C 11,4 C 3,5 km/h (1 Bft)
02.12.2011 04:50 11,6 C 10,9 C 11,1 C 11,5 C 11,4 C 0,0 C 69 % 73 % 0 % 1012,0 hPa 0,0 l/m 6,1 km/h (2 Bft) SO 135 0 min 0,0 UV-I 6,1 C 11,4 C 8,9 km/h (2 Bft)
02.12.2011 04:55 11,6 C 10,9 C 11,0 C 11,5 C 11,4 C 0,0 C 69 % 73 % 0 % 1012,0 hPa 0,0 l/m 6,3 km/h (2 Bft) S-SO 157 0 min 0,0 UV-I 6,1 C 11,4 C 7,7 km/h (2 Bft)
02.12.2011 05:00 11,6 C 10,9 C 11,1 C 11,6 C 11,5 C 0,0 C 69 % 73 % 0 % 1012,0 hPa 0,0 l/m 6,0 km/h (2 Bft) SW 225 0 min 0,0 UV-I 6,1 C 11,5 C 7,1 km/h (2 Bft)
02.12.2011 05:10 11,7 C 10,9 C 11,2 C 11,6 C 11,3 C 0,0 C 69 % 73 % 0 % 1012,0 hPa 0,0 l/m 6,9 km/h (2 Bft) N 0 0 min 0,0 UV-I 6,2 C 11,3 C 10,3 km/h (2 Bft)
02.12.2011 05:20 11,8 C 10,9 C 11,3 C 11,6 C 11,3 C 0,0 C 69 % 73 % 0 % 1011,2 hPa 0,0 l/m 7,6 km/h (2 Bft) S-SO 157 0 min 0,0 UV-I 6,3 C 11,3 C 10,1 km/h (2 Bft)
02.12.2011 05:25 11,8 C 10,9 C 11,1 C 11,7 C 11,6 C 0,0 C 69 % 73 % 0 % 1011,2 hPa 0,0 l/m 6,3 km/h (2 Bft) S-SO 157 0 min 0,0 UV-I 6,3 C 11,6 C 7,2 km/h (2 Bft)
02.12.2011 05:30 11,9 C 10,9 C 11,1 C 11,9 C 11,9 C 0,0 C 69 % 74 % 0 % 1011,2 hPa 0,0 l/m 4,7 km/h (1 Bft) NW 315 0 min 0,0 UV-I 6,4 C 11,9 C 5,8 km/h (2 Bft)
02.12.2011 05:35 11,8 C 10,9 C 11,1 C 11,9 C 11,9 C 0,1 C 69 % 74 % 0 % 1011,2 hPa 0,0 l/m 4,0 km/h (1 Bft) S 180 0 min 0,0 UV-I 6,3 C 11,9 C 6,1 km/h (2 Bft)
02.12.2011 05:40 11,9 C 10,9 C 11,1 C 11,9 C 11,9 C 0,0 C 68 % 74 % 0 % 1011,0 hPa 0,0 l/m 4,2 km/h (1 Bft) S 180 0 min 0,0 UV-I 6,2 C 11,9 C 7,4 km/h (2 Bft)
02.12.2011 05:45 11,9 C 10,9 C 10,9 C 11,9 C 11,9 C 0,0 C 69 % 74 % 0 % 1011,0 hPa 0,0 l/m 3,7 km/h (1 Bft) S 180 0 min 0,0 UV-I 6,4 C 11,9 C 6,3 km/h (2 Bft)
02.12.2011 05:50 11,9 C 11,0 C 11,0 C 11,9 C 11,9 C 0,0 C 69 % 75 % 0 % 1011,0 hPa 0,0 l/m 4,3 km/h (1 Bft) SO 135 0 min 0,0 UV-I 6,4 C 11,9 C 5,3 km/h (1 Bft)
02.12.2011 05:55 11,9 C 11,0 C 10,9 C 11,9 C 11,8 C 0,0 C 69 % 75 % 0 % 1011,0 hPa 0,0 l/m 3,5 km/h (1 Bft) O 90 0 min 0,0 UV-I 6,4 C 11,8 C 4,3 km/h (1 Bft)
02.12.2011 06:00 11,9 C 11,0 C 10,9 C 11,9 C 11,8 C 0,0 C 69 % 75 % 0 % 1010,9 hPa 0,0 l/m 3,1 km/h (1 Bft) S 180 0 min 0,0 UV-I 6,4 C 11,8 C 6,9 km/h (2 Bft)
02.12.2011 06:10 11,9 C 11,0 C 10,9 C 11,8 C 11,7 C 0,0 C 69 % 75 % 0 % 1010,9 hPa 0,0 l/m 2,7 km/h (1 Bft) N 0 0 min 0,0 UV-I 6,4 C 11,7 C 3,4 km/h (1 Bft)
02.12.2011 06:20 11,7 C 11,0 C 10,9 C 11,7 C 11,6 C 0,0 C 70 % 75 % 0 % 1010,8 hPa 0,0 l/m 4,2 km/h (1 Bft) W 270 0 min 0,0 UV-I 6,4 C 11,6 C 6,8 km/h (2 Bft)
02.12.2011 06:25 11,7 C 11,0 C 11,1 C 11,6 C 11,5 C 0,0 C 70 % 75 % 0 % 1010,8 hPa 0,0 l/m 3,4 km/h (1 Bft) W 270 0 min 0,0 UV-I 6,4 C 11,5 C 2,6 km/h (1 Bft)
02.12.2011 06:30 11,6 C 11,0 C 11,0 C 11,5 C 11,3 C 0,0 C 70 % 75 % 0 % 1010,8 hPa 0,0 l/m 2,9 km/h (1 Bft) SW 225 0 min 0,0 UV-I 6,3 C 11,3 C 3,5 km/h (1 Bft)
02.12.2011 06:35 11,4 C 11,0 C 10,7 C 11,3 C 11,0 C 0,0 C 71 % 75 % 0 % 1010,8 hPa 0,0 l/m 2,1 km/h (1 Bft) SW 225 0 min 0,0 UV-I 6,3 C 11,0 C 1,6 km/h (1 Bft)
02.12.2011 06:40 11,3 C 11,0 C 10,7 C 11,1 C 10,8 C 0,0 C 71 % 75 % 0 % 1010,6 hPa 0,0 l/m 2,1 km/h (1 Bft) NW 315 0 min 0,0 UV-I 6,2 C 10,8 C 3,7 km/h (1 Bft)
02.12.2011 06:45 11,3 C 11,0 C 10,7 C 11,1 C 10,8 C 0,0 C 71 % 75 % 0 % 1010,6 hPa 0,0 l/m 3,2 km/h (1 Bft) O-NO 67 0 min 0,0 UV-I 6,2 C 10,8 C 9,3 km/h (2 Bft)
02.12.2011 06:50 11,4 C 11,0 C 10,8 C 11,2 C 10,9 C 0,0 C 71 % 75 % 0 % 1010,6 hPa 0,0 l/m 4,5 km/h (1 Bft) W-SW 247 0 min 0,0 UV-I 6,3 C 10,9 C 8,4 km/h (2 Bft)
02.12.2011 06:55 11,5 C 11,0 C 10,9 C 11,2 C 10,6 C 0,0 C 71 % 74 % 0 % 1010,6 hPa 0,0 l/m 6,1 km/h (2 Bft) SW 225 0 min 0,0 UV-I 6,4 C 10,6 C 16,1 km/h (3 Bft)
02.12.2011 07:00 11,5 C 11,0 C 11,0 C 11,2 C 10,7 C 0,0 C 70 % 74 % 0 % 1011,0 hPa 0,0 l/m 6,9 km/h (2 Bft) W 270 0 min 0,0 UV-I 6,2 C 10,7 C 5,5 km/h (1 Bft)
02.12.2011 07:10 11,6 C 11,1 C 11,1 C 11,4 C 10,4 C 0,0 C 69 % 73 % 0 % 1011,0 hPa 0,0 l/m 10,3 km/h (2 Bft) N 0 0 min 0,0 UV-I 6,1 C 10,4 C 9,0 km/h (2 Bft)
02.12.2011 07:20 11,7 C 11,1 C 11,1 C 11,4 C 10,3 C 0,0 C 70 % 74 % 0 % 1010,6 hPa 0,0 l/m 10,1 km/h (2 Bft) S 180 0 min 0,0 UV-I 6,4 C 10,3 C 14,8 km/h (3 Bft)
02.12.2011 07:25 11,6 C 11,1 C 11,0 C 11,3 C 10,2 C 0,0 C 69 % 73 % 0 % 1010,6 hPa 0,0 l/m 10,5 km/h (2 Bft) N-NO 22 0 min 0,0 UV-I 6,1 C 10,2 C 16,4 km/h (3 Bft)
02.12.2011 07:30 11,5 C 11,1 C 11,1 C 11,2 C 10,3 C 0,0 C 69 % 73 % 0 % 1010,6 hPa 0,0 l/m 9,3 km/h (2 Bft) S-SW 202 0 min 0,0 UV-I 6,0 C 10,3 C 23,5 km/h (4 Bft)
02.12.2011 07:35 11,4 C 11,1 C 10,9 C 11,1 C 10,0 C 0,0 C 68 % 72 % 0 % 1010,6 hPa 0,0 l/m 10,5 km/h (2 Bft) S 180 0 min 0,0 UV-I 5,7 C 8,5 C 14,5 km/h (3 Bft)
02.12.2011 07:40 11,5 C 11,1 C 10,8 C 11,1 C 9,8 C 0,0 C 68 % 72 % 0 % 1010,6 hPa 0,0 l/m 10,6 km/h (2 Bft) SO 135 0 min 0,0 UV-I 5,8 C 8,3 C 12,1 km/h (2 Bft)
02.12.2011 07:45 11,3 C 11,1 C 10,8 C 11,0 C 10,1 C 0,0 C 68 % 72 % 0 % 1010,6 hPa 0,0 l/m 8,4 km/h (2 Bft) W 270 0 min 0,0 UV-I 5,6 C 10,1 C 7,9 km/h (2 Bft)
02.12.2011 07:50 11,3 C 11,1 C 10,8 C 11,0 C 10,2 C 0,0 C 68 % 72 % 0 % 1010,6 hPa 0,0 l/m 7,7 km/h (2 Bft) S-SO 157 0 min 0,0 UV-I 5,6 C 10,2 C 17,4 km/h (3 Bft)
02.12.2011 07:55 11,3 C 11,1 C 10,8 C 10,9 C 10,2 C 0,0 C 67 % 71 % 0 % 1010,6 hPa 0,0 l/m 7,6 km/h (2 Bft) W-SW 247 0 min 0,0 UV-I 5,4 C 10,2 C 10,9 km/h (2 Bft)
02.12.2011 08:00 11,4 C 11,1 C 10,8 C 11,0 C 10,3 C 0,0 C 67 % 71 % 0 % 1010,8 hPa 0,0 l/m 7,1 km/h (2 Bft) SW 225 0 min 0,0 UV-I 5,5 C 10,3 C 8,7 km/h (2 Bft)
02.12.2011 08:10 11,3 C 11,1 C 10,7 C 11,0 C 10,3 C 0,0 C 66 % 70 % 0 % 1010,8 hPa 0,0 l/m 7,9 km/h (2 Bft) N 0 0 min 0,0 UV-I 5,2 C 10,3 C 10,0 km/h (2 Bft)
02.12.2011 08:20 11,3 C 11,1 C 10,7 C 11,0 C 9,8 C 0,0 C 65 % 69 % 0 % 1010,6 hPa 0,0 l/m 10,8 km/h (2 Bft) S 180 0 min 0,0 UV-I 5,0 C 8,3 C 13,8 km/h (3 Bft)
02.12.2011 08:25 11,3 C 11,1 C 10,7 C 11,0 C 9,9 C 0,0 C 65 % 69 % 0 % 1010,6 hPa 0,0 l/m 10,1 km/h (2 Bft) SW 225 0 min 0,0 UV-I 5,0 C 8,5 C 11,4 km/h (2 Bft)
02.12.2011 08:30 11,3 C 11,1 C 10,7 C 11,0 C 10,1 C 0,0 C 65 % 69 % 0 % 1010,6 hPa 0,0 l/m 9,2 km/h (2 Bft) S-SW 202 0 min 0,0 UV-I 5,0 C 10,1 C 18,7 km/h (3 Bft)
02.12.2011 08:35 11,3 C 11,1 C 10,7 C 11,0 C 10,2 C 0,0 C 65 % 69 % 0 % 1010,6 hPa 0,0 l/m 8,5 km/h (2 Bft) S-SO 157 0 min 0,0 UV-I 5,0 C 10,2 C 6,9 km/h (2 Bft)
02.12.2011 08:40 11,3 C 11,1 C 10,7 C 10,9 C 10,2 C 0,0 C 65 % 69 % 0 % 1010,8 hPa 0,0 l/m 7,7 km/h (2 Bft) S-SW 202 0 min 0,0 UV-I 5,0 C 10,2 C 8,0 km/h (2 Bft)
02.12.2011 08:45 11,3 C 11,2 C 10,7 C 11,0 C 10,4 C 0,0 C 65 % 69 % 0 % 1010,8 hPa 0,0 l/m 7,6 km/h (2 Bft) W 270 0 min 0,0 UV-I 5,0 C 10,4 C 5,6 km/h (1 Bft)
02.12.2011 08:50 11,2 C 11,2 C 10,7 C 11,0 C 10,3 C 0,0 C 65 % 69 % 0 % 1010,8 hPa 0,0 l/m 7,7 km/h (2 Bft) S 180 0 min 0,0 UV-I 4,9 C 10,3 C 8,4 km/h (2 Bft)
02.12.2011 08:55 11,2 C 11,2 C 10,8 C 11,0 C 10,5 C 0,0 C 65 % 69 % 0 % 1010,8 hPa 0,0 l/m 6,9 km/h (2 Bft) S 180 0 min 0,0 UV-I 4,9 C 10,5 C 7,6 km/h (2 Bft)
02.12.2011 09:00 11,2 C 11,2 C 10,8 C 11,0 C 10,6 C 0,0 C 65 % 69 % 0 % 1010,8 hPa 0,0 l/m 6,6 km/h (2 Bft) S 180 0 min 0,0 UV-I 4,9 C 10,6 C 8,2 km/h (2 Bft)
02.12.2011 09:10 11,2 C 11,2 C 10,7 C 11,0 C 10,7 C 0,0 C 65 % 69 % 0 % 1010,8 hPa 0,0 l/m 6,8 km/h (2 Bft) N 0 0 min 0,0 UV-I 4,9 C 10,7 C 6,6 km/h (2 Bft)
02.12.2011 09:20 11,4 C 11,2 C 10,8 C 11,2 C 10,7 C 0,0 C 65 % 69 % 0 % 1010,6 hPa 0,0 l/m 8,2 km/h (2 Bft) S 180 0 min 0,0 UV-I 5,1 C 10,7 C 12,2 km/h (2 Bft)
02.12.2011 09:25 11,5 C 11,2 C 10,8 C 11,4 C 10,9 C 0,0 C 65 % 69 % 0 % 1010,6 hPa 0,0 l/m 8,0 km/h (2 Bft) W-SW 247 0 min 0,0 UV-I 5,2 C 10,9 C 9,8 km/h (2 Bft)
02.12.2011 09:30 11,5 C 11,2 C 11,1 C 11,3 C 10,9 C 0,0 C 64 % 68 % 0 % 1010,6 hPa 0,0 l/m 8,5 km/h (2 Bft) SO 135 0 min 0,0 UV-I 4,9 C 10,9 C 7,1 km/h (2 Bft)
02.12.2011 09:35 11,7 C 11,2 C 11,3 C 11,4 C 10,9 C 0,0 C 64 % 67 % 0 % 1010,6 hPa 0,0 l/m 10,5 km/h (2 Bft) SW 225 0 min 0,0 UV-I 5,1 C 10,9 C 15,6 km/h (3 Bft)
02.12.2011 09:40 11,8 C 11,2 C 11,5 C 11,7 C 11,2 C 0,0 C 64 % 67 % 0 % 1011,4 hPa 0,0 l/m 9,7 km/h (2 Bft) W 270 0 min 0,0 UV-I 5,2 C 11,2 C 18,8 km/h (3 Bft)
02.12.2011 09:45 11,9 C 11,2 C 11,5 C 11,8 C 11,6 C 0,0 C 63 % 67 % 0 % 1011,4 hPa 0,0 l/m 8,0 km/h (2 Bft) W-SW 247 0 min 0,0 UV-I 5,1 C 11,6 C 14,2 km/h (3 Bft)
02.12.2011 09:50 12,0 C 11,3 C 11,5 C 12,0 C 11,7 C 0,0 C 63 % 66 % 0 % 1011,4 hPa 0,0 l/m 8,0 km/h (2 Bft) SO 135 0 min 0,0 UV-I 5,2 C 11,7 C 10,3 km/h (2 Bft)
02.12.2011 09:55 12,0 C 11,3 C 11,6 C 12,0 C 11,9 C 0,0 C 63 % 66 % 0 % 1011,4 hPa 0,0 l/m 7,9 km/h (2 Bft) W 270 0 min 0,0 UV-I 5,2 C 11,9 C 5,5 km/h (1 Bft)
02.12.2011 10:00 12,0 C 11,3 C 11,6 C 12,0 C 11,9 C 0,0 C 63 % 66 % 0 % 1011,3 hPa 0,0 l/m 8,2 km/h (2 Bft) W-SW 247 0 min 0,0 UV-I 5,2 C 11,9 C 14,8 km/h (3 Bft)
02.12.2011 10:10 12,0 C 11,3 C 11,6 C 12,0 C 11,8 C 0,0 C 63 % 66 % 0 % 1011,3 hPa 0,0 l/m 8,2 km/h (2 Bft) N 0 0 min 0,0 UV-I 5,2 C 11,8 C 6,8 km/h (2 Bft)
02.12.2011 10:20 12,1 C 11,3 C 11,7 C 12,1 C 11,9 C 0,0 C 63 % 66 % 0 % 1011,3 hPa 0,0 l/m 8,2 km/h (2 Bft) W 270 0 min 0,0 UV-I 5,3 C 11,9 C 21,1 km/h (4 Bft)
02.12.2011 10:25 12,2 C 11,3 C 11,9 C 12,2 C 12,1 C 0,0 C 63 % 66 % 0 % 1011,3 hPa 0,0 l/m 8,5 km/h (2 Bft) S 180 0 min 0,0 UV-I 5,4 C 12,1 C 8,0 km/h (2 Bft)
02.12.2011 10:30 12,3 C 11,3 C 12,1 C 12,5 C 12,3 C 0,2 C 62 % 65 % 5 % 1011,3 hPa 0,0 l/m 9,5 km/h (2 Bft) O 90 0 min 0,0 UV-I 5,2 C 12,3 C 10,6 km/h (2 Bft)
02.12.2011 10:35 12,6 C 11,3 C 12,3 C 12,7 C 12,6 C 0,1 C 62 % 65 % 3 % 1011,3 hPa 0,0 l/m 10,0 km/h (2 Bft) W 270 0 min 0,0 UV-I 5,5 C 12,6 C 16,6 km/h (3 Bft)
02.12.2011 10:40 12,7 C 11,3 C 12,4 C 13,0 C 12,8 C 0,3 C 62 % 65 % 8 % 1011,4 hPa 0,0 l/m 10,0 km/h (2 Bft) S-SO 157 0 min 0,0 UV-I 5,6 C 12,8 C 27,0 km/h (4 Bft)
02.12.2011 10:45 12,8 C 11,3 C 12,7 C 13,4 C 13,4 C 0,6 C 61 % 65 % 16 % 1011,4 hPa 0,0 l/m 10,9 km/h (2 Bft) SW 225 0 min 0,0 UV-I 5,5 C 13,4 C 19,6 km/h (3 Bft)
02.12.2011 10:50 12,9 C 11,3 C 12,7 C 13,8 C 13,7 C 0,9 C 61 % 64 % 24 % 1011,4 hPa 0,0 l/m 10,6 km/h (2 Bft) W-SW 247 0 min 0,0 UV-I 5,6 C 13,7 C 33,5 km/h (5 Bft)
02.12.2011 10:55 13,1 C 11,4 C 12,7 C 14,0 C 13,8 C 0,9 C 62 % 64 % 24 % 1011,4 hPa 0,0 l/m 10,5 km/h (2 Bft) S 180 0 min 0,0 UV-I 6,0 C 13,8 C 16,9 km/h (3 Bft)
02.12.2011 11:00 13,1 C 11,4 C 12,8 C 14,1 C 14,0 C 1,0 C 61 % 64 % 26 % 1010,6 hPa 0,0 l/m 10,0 km/h (2 Bft) W-SW 247 0 min 0,0 UV-I 5,8 C 14,0 C 11,3 km/h (2 Bft)
02.12.2011 11:10 13,1 C 11,4 C 12,8 C 14,1 C 13,7 C 1,0 C 62 % 65 % 26 % 1010,6 hPa 0,0 l/m 13,4 km/h (3 Bft) N 0 0 min 0,0 UV-I 6,0 C 13,7 C 16,7 km/h (3 Bft)
02.12.2011 11:20 13,1 C 11,4 C 12,9 C 13,8 C 13,5 C 0,7 C 62 % 65 % 18 % 1010,6 hPa 0,0 l/m 11,9 km/h (2 Bft) N 360 0 min 0,0 UV-I 6,0 C 13,5 C 25,9 km/h (4 Bft)
02.12.2011 11:25 13,1 C 11,4 C 12,8 C 13,9 C 13,8 C 0,8 C 61 % 65 % 21 % 1010,6 hPa 0,0 l/m 10,6 km/h (2 Bft) O 90 0 min 0,0 UV-I 5,8 C 13,8 C 12,2 km/h (2 Bft)
02.12.2011 11:30 13,1 C 11,4 C 12,9 C 13,8 C 13,8 C 0,7 C 62 % 64 % 18 % 1010,6 hPa 0,0 l/m 9,0 km/h (2 Bft) N-NO 22 0 min 0,0 UV-I 6,0 C 13,8 C 9,7 km/h (2 Bft)
02.12.2011 11:35 13,1 C 11,4 C 12,9 C 13,8 C 13,6 C 0,7 C 62 % 65 % 18 % 1010,6 hPa 0,0 l/m 8,7 km/h (2 Bft) S-SW 202 0 min 0,0 UV-I 6,0 C 13,6 C 7,4 km/h (2 Bft)
02.12.2011 11:40 13,1 C 11,4 C 12,8 C 13,6 C 13,4 C 0,5 C 62 % 65 % 13 % 1010,3 hPa 0,0 l/m 9,3 km/h (2 Bft) S-SW 202 0 min 0,0 UV-I 6,0 C 13,4 C 17,4 km/h (3 Bft)
02.12.2011 11:45 13,1 C 11,4 C 12,8 C 13,4 C 13,4 C 0,3 C 62 % 65 % 8 % 1010,3 hPa 0,0 l/m 9,0 km/h (2 Bft) S 180 0 min 0,0 UV-I 6,0 C 13,4 C 12,7 km/h (3 Bft)
02.12.2011 11:50 13,1 C 11,4 C 12,9 C 13,5 C 13,2 C 0,4 C 62 % 64 % 11 % 1010,3 hPa 0,0 l/m 10,0 km/h (2 Bft) W 270 0 min 0,0 UV-I 6,0 C 13,2 C 11,7 km/h (2 Bft)
02.12.2011 11:55 13,0 C 11,4 C 12,8 C 13,4 C 13,3 C 0,4 C 62 % 65 % 11 % 1010,3 hPa 0,0 l/m 9,2 km/h (2 Bft) W-SW 247 0 min 0,0 UV-I 5,9 C 13,3 C 11,3 km/h (2 Bft)
02.12.2011 12:00 12,9 C 11,5 C 12,7 C 13,3 C 13,3 C 0,4 C 62 % 65 % 11 % 1010,2 hPa 0,0 l/m 8,0 km/h (2 Bft) SO 135 0 min 0,0 UV-I 5,8 C 13,3 C 13,2 km/h (3 Bft)
02.12.2011 12:05 12,9 C 11,5 C 12,7 C 13,4 C 13,4 C 0,5 C 62 % 65 % 13 % 1010,2 hPa 0,0 l/m 7,4 km/h (2 Bft) SW 225 0 min 0,0 UV-I 5,8 C 13,4 C 12,1 km/h (2 Bft)
02.12.2011 12:10 13,0 C 11,5 C 12,7 C 13,7 C 13,7 C 0,7 C 62 % 65 % 18 % 1010,2 hPa 0,0 l/m 7,1 km/h (2 Bft) S-SO 157 0 min 0,0 UV-I 5,9 C 13,7 C 5,1 km/h (1 Bft)
02.12.2011 12:15 13,1 C 11,4 C 12,9 C 14,3 C 14,3 C 1,2 C 62 % 64 % 32 % 1010,2 hPa 0,0 l/m 7,6 km/h (2 Bft) S 180 0 min 0,0 UV-I 6,0 C 14,3 C 18,8 km/h (3 Bft)
02.12.2011 12:20 13,2 C 11,4 C 13,1 C 14,6 C 14,6 C 1,4 C 62 % 64 % 37 % 1009,9 hPa 0,0 l/m 8,4 km/h (2 Bft) S 180 0 min 0,0 UV-I 6,1 C 14,6 C 13,8 km/h (3 Bft)
02.12.2011 12:25 13,5 C 11,4 C 13,2 C 14,8 C 14,8 C 1,3 C 62 % 64 % 34 % 1009,9 hPa 0,0 l/m 8,7 km/h (2 Bft) SW 225 0 min 0,0 UV-I 6,4 C 14,8 C 13,4 km/h (3 Bft)
02.12.2011 12:30 13,5 C 11,4 C 13,2 C 14,9 C 14,9 C 1,4 C 62 % 64 % 37 % 1009,9 hPa 0,0 l/m 7,9 km/h (2 Bft) W 270 0 min 0,0 UV-I 6,4 C 14,9 C 10,6 km/h (2 Bft)
02.12.2011 12:35 13,5 C 11,4 C 13,2 C 14,8 C 14,6 C 1,3 C 61 % 64 % 34 % 1009,9 hPa 0,0 l/m 8,2 km/h (2 Bft) W-SW 247 0 min 0,0 UV-I 6,1 C 14,6 C 19,5 km/h (3 Bft)
02.12.2011 12:40 13,5 C 11,4 C 13,2 C 14,5 C 14,4 C 1,0 C 61 % 63 % 26 % 1010,7 hPa 0,0 l/m 7,7 km/h (2 Bft) O 90 0 min 0,0 UV-I 6,1 C 14,4 C 5,8 km/h (2 Bft)
02.12.2011 12:45 13,4 C 11,5 C 13,2 C 14,2 C 13,9 C 0,8 C 61 % 64 % 21 % 1010,7 hPa 0,0 l/m 9,3 km/h (2 Bft) SW 225 0 min 0,0 UV-I 6,0 C 13,9 C 14,2 km/h (3 Bft)
02.12.2011 12:50 13,5 C 11,5 C 13,1 C 14,0 C 13,8 C 0,5 C 61 % 64 % 13 % 1010,7 hPa 0,0 l/m 9,5 km/h (2 Bft) W 270 0 min 0,0 UV-I 6,1 C 13,8 C 20,0 km/h (4 Bft)
02.12.2011 12:55 13,4 C 11,5 C 13,2 C 13,8 C 13,5 C 0,4 C 61 % 64 % 11 % 1010,7 hPa 0,0 l/m 11,3 km/h (2 Bft) W-SW 247 0 min 0,0 UV-I 6,0 C 13,5 C 21,9 km/h (4 Bft)
02.12.2011 13:00 13,5 C 11,5 C 13,1 C 13,6 C 13,2 C 0,1 C 62 % 65 % 3 % 1010,2 hPa 0,0 l/m 12,1 km/h (2 Bft) W-SW 247 0 min 0,0 UV-I 6,4 C 13,2 C 12,7 km/h (3 Bft)
02.12.2011 13:10 13,5 C 11,5 C 13,0 C 13,6 C 13,6 C 0,1 C 62 % 65 % 3 % 1010,2 hPa 0,0 l/m 9,3 km/h (2 Bft) N 0 0 min 0,0 UV-I 6,4 C 13,6 C 13,4 km/h (3 Bft)
02.12.2011 13:20 13,6 C 11,5 C 13,2 C 14,0 C 13,8 C 0,4 C 62 % 65 % 11 % 1010,2 hPa 0,0 l/m 11,9 km/h (2 Bft) O-SO 112 0 min 0,0 UV-I 6,5 C 13,8 C 15,6 km/h (3 Bft)
02.12.2011 13:25 13,8 C 11,6 C 13,3 C 13,8 C 13,8 C 0,0 C 61 % 65 % 0 % 1010,2 hPa 0,0 l/m 14,3 km/h (3 Bft) W 270 0 min 0,0 UV-I 6,4 C 13,8 C 21,4 km/h (4 Bft)
02.12.2011 13:30 13,9 C 11,6 C 13,4 C 14,3 C 14,0 C 0,4 C 61 % 64 % 11 % 1010,2 hPa 0,0 l/m 15,9 km/h (3 Bft) W-SW 247 0 min 0,0 UV-I 6,5 C 14,0 C 34,1 km/h (5 Bft)
02.12.2011 13:35 13,9 C 11,6 C 13,7 C 14,5 C 14,3 C 0,6 C 61 % 64 % 16 % 1010,2 hPa 0,0 l/m 16,3 km/h (3 Bft) SW 225 0 min 0,0 UV-I 6,5 C 14,3 C 10,1 km/h (2 Bft)
02.12.2011 13:40 14,1 C 11,6 C 13,7 C 14,8 C 14,6 C 0,7 C 61 % 64 % 18 % 1010,2 hPa 0,0 l/m 14,6 km/h (3 Bft) W-SW 247 0 min 0,0 UV-I 6,7 C 14,6 C 34,4 km/h (5 Bft)
02.12.2011 13:45 14,0 C 11,6 C 13,7 C 14,6 C 14,6 C 0,6 C 61 % 64 % 16 % 1010,2 hPa 0,0 l/m 14,6 km/h (3 Bft) W-SW 247 0 min 0,0 UV-I 6,6 C 14,6 C 19,3 km/h (3 Bft)
02.12.2011 13:50 14,0 C 11,6 C 13,7 C 14,6 C 14,0 C 0,6 C 60 % 63 % 16 % 1010,2 hPa 0,0 l/m 17,1 km/h (3 Bft) SW 225 0 min 0,0 UV-I 6,4 C 14,0 C 19,6 km/h (3 Bft)
02.12.2011 13:55 13,9 C 11,6 C 13,6 C 14,2 C 13,6 C 0,3 C 61 % 64 % 8 % 1010,2 hPa 0,0 l/m 19,3 km/h (3 Bft) W-SW 247 0 min 0,0 UV-I 6,5 C 13,6 C 21,7 km/h (4 Bft)
02.12.2011 14:00 13,8 C 11,6 C 13,7 C 14,0 C 13,5 C 0,2 C 62 % 64 % 5 % 1010,2 hPa 0,0 l/m 18,5 km/h (3 Bft) N-NW 337 0 min 0,0 UV-I 6,6 C 13,5 C 18,0 km/h (3 Bft)
02.12.2011 14:10 13,8 C 11,6 C 13,6 C 13,8 C 13,2 C 0,0 C 62 % 64 % 0 % 1010,2 hPa 0,0 l/m 19,2 km/h (3 Bft) N 0 0 min 0,0 UV-I 6,6 C 13,2 C 19,0 km/h (3 Bft)
02.12.2011 14:20 13,7 C 11,7 C 13,3 C 13,6 C 12,9 C 0,0 C 62 % 65 % 0 % 1010,9 hPa 0,0 l/m 17,5 km/h (3 Bft) SW 225 0 min 0,0 UV-I 6,6 C 12,9 C 13,7 km/h (3 Bft)
02.12.2011 14:25 13,5 C 11,7 C 13,4 C 13,4 C 12,8 C 0,0 C 62 % 65 % 0 % 1010,9 hPa 0,0 l/m 16,7 km/h (3 Bft) SW 225 0 min 0,0 UV-I 6,4 C 12,8 C 25,7 km/h (4 Bft)
02.12.2011 14:30 13,5 C 11,7 C 13,2 C 13,4 C 12,6 C 0,0 C 62 % 65 % 0 % 1010,9 hPa 0,0 l/m 16,4 km/h (3 Bft) SW 225 0 min 0,0 UV-I 6,4 C 12,6 C 11,4 km/h (2 Bft)
02.12.2011 14:35 13,3 C 11,8 C 13,1 C 13,2 C 12,4 C 0,0 C 63 % 66 % 0 % 1010,9 hPa 0,0 l/m 15,4 km/h (3 Bft) W-SW 247 0 min 0,0 UV-I 6,4 C 12,4 C 15,6 km/h (3 Bft)
02.12.2011 14:40 13,2 C 11,8 C 12,9 C 12,9 C 12,4 C 0,0 C 63 % 66 % 0 % 1010,6 hPa 0,0 l/m 14,0 km/h (3 Bft) W-SW 247 0 min 0,0 UV-I 6,3 C 12,4 C 17,7 km/h (3 Bft)
02.12.2011 14:45 13,1 C 11,8 C 12,8 C 13,0 C 12,2 C 0,0 C 64 % 67 % 0 % 1010,6 hPa 0,0 l/m 13,5 km/h (3 Bft) W-SW 247 0 min 0,0 UV-I 6,4 C 12,2 C 22,2 km/h (4 Bft)
02.12.2011 14:50 13,1 C 11,8 C 12,8 C 12,9 C 12,1 C 0,0 C 64 % 67 % 0 % 1010,6 hPa 0,0 l/m 13,7 km/h (3 Bft) W-SW 247 0 min 0,0 UV-I 6,4 C 12,1 C 18,7 km/h (3 Bft)
02.12.2011 14:55 13,1 C 11,8 C 12,7 C 12,9 C 12,2 C 0,0 C 64 % 68 % 0 % 1010,6 hPa 0,0 l/m 12,6 km/h (3 Bft) W 270 0 min 0,0 UV-I 6,4 C 12,2 C 10,9 km/h (2 Bft)
02.12.2011 15:00 13,0 C 11,8 C 12,7 C 12,9 C 12,3 C 0,0 C 65 % 68 % 0 % 1010,8 hPa 0,0 l/m 11,1 km/h (2 Bft) W-SW 247 0 min 0,0 UV-I 6,6 C 12,3 C 19,5 km/h (3 Bft)
02.12.2011 15:10 12,9 C 11,9 C 12,5 C 12,8 C 12,1 C 0,0 C 65 % 68 % 0 % 1010,8 hPa 0,0 l/m 12,1 km/h (2 Bft) N 0 0 min 0,0 UV-I 6,5 C 12,1 C 11,9 km/h (2 Bft)
02.12.2011 15:20 12,8 C 11,9 C 12,4 C 12,6 C 11,8 C 0,0 C 65 % 68 % 0 % 1010,7 hPa 0,0 l/m 12,2 km/h (2 Bft) SW 225 0 min 0,0 UV-I 6,4 C 11,8 C 17,2 km/h (3 Bft)
02.12.2011 15:25 12,6 C 11,9 C 12,3 C 12,3 C 11,8 C 0,0 C 66 % 69 % 0 % 1010,7 hPa 0,0 l/m 12,2 km/h (2 Bft) SW 225 0 min 0,0 UV-I 6,4 C 11,8 C 10,8 km/h (2 Bft)
02.12.2011 15:30 12,7 C 11,9 C 12,3 C 12,5 C 11,6 C 0,0 C 66 % 69 % 0 % 1010,7 hPa 0,0 l/m 12,2 km/h (2 Bft) SW 225 0 min 0,0 UV-I 6,5 C 11,6 C 8,0 km/h (2 Bft)
02.12.2011 15:35 11,9 C 12,0 C 11,3 C 11,8 C 11,2 C 0,0 C 67 % 71 % 0 % 1010,7 hPa 0,0 l/m 8,0 km/h (2 Bft) SW 225 0 min 0,0 UV-I 6,0 C 11,2 C 5,8 km/h (2 Bft)
02.12.2011 15:40 10,8 C 12,0 C 10,5 C 10,6 C 10,3 C 0,0 C 70 % 73 % 0 % 1012,2 hPa 0,0 l/m 6,3 km/h (2 Bft) N-NW 337 0 min 0,0 UV-I 5,6 C 10,3 C 12,2 km/h (2 Bft)
02.12.2011 15:45 10,1 C 12,0 C 9,6 C 9,7 C 8,8 C 0,0 C 72 % 76 % 0 % 1012,2 hPa 0,0 l/m 6,3 km/h (2 Bft) SW 225 0 min 0,0 UV-I 5,3 C 8,0 C 10,8 km/h (2 Bft)
02.12.2011 15:50 9,4 C 12,1 C 9,2 C 9,0 C 8,1 C 0,0 C 74 % 78 % 0 % 1012,2 hPa 0,0 l/m 5,8 km/h (2 Bft) SO 135 0 min 0,0 UV-I 5,0 C 7,3 C 7,2 km/h (2 Bft)
02.12.2011 15:55 8,8 C 12,3 C 8,7 C 8,4 C 7,6 C 0,0 C 76 % 80 % 0 % 1012,2 hPa 0,0 l/m 5,5 km/h (1 Bft) S-SW 202 0 min 0,0 UV-I 4,8 C 6,9 C 5,1 km/h (1 Bft)
02.12.2011 16:00 8,6 C 12,3 C 8,4 C 8,2 C 7,4 C 0,0 C 78 % 81 % 0 % 1012,9 hPa 0,0 l/m 4,3 km/h (1 Bft) N-NO 22 0 min 0,0 UV-I 5,0 C 7,4 C 1,8 km/h (1 Bft)
02.12.2011 16:10 8,1 C 12,4 C 8,0 C 7,8 C 7,2 C 0,0 C 79 % 83 % 0 % 1012,9 hPa 0,0 l/m 2,1 km/h (1 Bft) N 0 0 min 0,0 UV-I 4,7 C 7,2 C 4,7 km/h (1 Bft)
02.12.2011 16:20 7,6 C 12,5 C 7,5 C 7,3 C 6,8 C 0,0 C 81 % 86 % 0 % 1013,2 hPa 0,0 l/m 3,1 km/h (1 Bft) W 270 0 min 0,0 UV-I 4,6 C 6,8 C 2,7 km/h (1 Bft)
02.12.2011 16:25 7,5 C 12,5 C 7,2 C 7,2 C 6,7 C 0,0 C 83 % 87 % 0 % 1013,2 hPa 0,0 l/m 3,1 km/h (1 Bft) S-SW 202 0 min 0,0 UV-I 4,8 C 6,7 C 7,9 km/h (2 Bft)
02.12.2011 16:30 7,2 C 12,6 C 7,2 C 7,0 C 6,7 C 0,0 C 83 % 87 % 0 % 1013,2 hPa 0,0 l/m 3,4 km/h (1 Bft) W-SW 247 0 min 0,0 UV-I 4,5 C 6,7 C 3,2 km/h (1 Bft)
02.12.2011 16:35 7,1 C 12,6 C 6,9 C 6,8 C 6,2 C 0,0 C 84 % 88 % 0 % 1013,2 hPa 0,7 l/m 4,0 km/h (1 Bft) W-SW 247 0 min 0,0 UV-I 4,6 C 6,2 C 7,1 km/h (2 Bft)
02.12.2011 16:40 6,9 C 12,6 C 6,9 C 6,6 C 5,9 C 0,0 C 85 % 88 % 0 % 1013,8 hPa 0,0 l/m 4,3 km/h (1 Bft) W-SW 247 0 min 0,0 UV-I 4,6 C 5,9 C 5,5 km/h (1 Bft)
02.12.2011 16:45 6,7 C 12,6 C 6,7 C 6,4 C 5,8 C 0,0 C 85 % 89 % 0 % 1013,8 hPa 0,0 l/m 4,7 km/h (1 Bft) W-SW 247 0 min 0,0 UV-I 4,4 C 5,1 C 0,0 km/h (0 Bft)
02.12.2011 16:50 6,7 C 12,6 C 6,5 C 6,4 C 5,9 C 0,0 C 86 % 90 % 0 % 1013,8 hPa 0,0 l/m 4,0 km/h (1 Bft) S-SW 202 0 min 0,0 UV-I 4,5 C 5,9 C 6,9 km/h (2 Bft)
02.12.2011 16:55 6,5 C 12,6 C 6,4 C 6,3 C 5,9 C 0,0 C 86 % 90 % 0 % 1013,8 hPa 0,0 l/m 3,9 km/h (1 Bft) N 360 0 min 0,0 UV-I 4,3 C 5,9 C 6,8 km/h (2 Bft)
02.12.2011 17:00 6,5 C 12,7 C 6,3 C 6,2 C 5,7 C 0,0 C 86 % 90 % 0 % 1014,6 hPa 0,0 l/m 4,0 km/h (1 Bft) W 270 0 min 0,0 UV-I 4,3 C 5,7 C 2,6 km/h (1 Bft)
02.12.2011 17:10 6,1 C 12,6 C 6,0 C 5,9 C 5,4 C 0,0 C 86 % 90 % 0 % 1014,6 hPa 0,0 l/m 3,9 km/h (1 Bft) N 0 0 min 0,0 UV-I 3,9 C 5,4 C 2,6 km/h (1 Bft)
02.12.2011 17:20 5,9 C 12,7 C 5,9 C 5,8 C 5,6 C 0,0 C 86 % 90 % 0 % 1014,6 hPa 0,7 l/m 2,7 km/h (1 Bft) O-NO 67 0 min 0,0 UV-I 3,7 C 5,6 C 0,0 km/h (0 Bft)
02.12.2011 17:25 5,9 C 12,6 C 5,7 C 5,8 C 5,5 C 0,0 C 86 % 90 % 0 % 1014,6 hPa 0,0 l/m 2,6 km/h (1 Bft) W-SW 247 0 min 0,0 UV-I 3,7 C 5,5 C 1,8 km/h (1 Bft)
02.12.2011 17:30 5,8 C 12,6 C 5,7 C 5,7 C 5,5 C 0,0 C 87 % 91 % 0 % 1014,6 hPa 0,0 l/m 2,7 km/h (1 Bft) NW 315 0 min 0,0 UV-I 3,8 C 5,5 C 5,0 km/h (1 Bft)
02.12.2011 17:35 5,7 C 12,6 C 5,7 C 5,6 C 5,4 C 0,0 C 87 % 91 % 0 % 1014,6 hPa 0,0 l/m 2,6 km/h (1 Bft) W-SW 247 0 min 0,0 UV-I 3,7 C 5,4 C 3,2 km/h (1 Bft)
02.12.2011 17:40 5,7 C 12,6 C 5,7 C 5,6 C 5,4 C 0,0 C 87 % 91 % 0 % 1014,6 hPa 0,0 l/m 2,4 km/h (1 Bft) SW 225 0 min 0,0 UV-I 3,7 C 5,4 C 5,8 km/h (2 Bft)
02.12.2011 17:45 5,6 C 12,6 C 5,6 C 5,5 C 5,4 C 0,0 C 87 % 91 % 0 % 1014,6 hPa 0,0 l/m 2,4 km/h (1 Bft) W-SW 247 0 min 0,0 UV-I 3,6 C 5,4 C 4,5 km/h (1 Bft)
02.12.2011 17:50 5,6 C 12,6 C 5,5 C 5,5 C 5,4 C 0,0 C 87 % 91 % 0 % 1014,6 hPa 0,0 l/m 2,7 km/h (1 Bft) W-SW 247 0 min 0,0 UV-I 3,6 C 5,4 C 4,8 km/h (1 Bft)
02.12.2011 17:55 5,6 C 12,6 C 5,6 C 5,5 C 5,2 C 0,0 C 87 % 92 % 0 % 1014,6 hPa 0,0 l/m 3,5 km/h (1 Bft) W-NW 292 0 min 0,0 UV-I 3,6 C 5,2 C 4,7 km/h (1 Bft)
02.12.2011 18:00 5,6 C 12,6 C 5,5 C 5,5 C 5,4 C 0,0 C 87 % 92 % 0 % 1015,8 hPa 0,0 l/m 2,9 km/h (1 Bft) W 270 0 min 0,0 UV-I 3,6 C 5,4 C 1,9 km/h (1 Bft)
02.12.2011 18:10 5,6 C 12,6 C 5,5 C 5,5 C 5,4 C 0,0 C 87 % 92 % 0 % 1015,8 hPa 0,0 l/m 3,1 km/h (1 Bft) N 0 0 min 0,0 UV-I 3,6 C 5,4 C 3,4 km/h (1 Bft)
02.12.2011 18:20 5,7 C 12,6 C 5,5 C 5,6 C 5,3 C 0,0 C 87 % 92 % 0 % 1015,4 hPa 0,0 l/m 3,1 km/h (1 Bft) W-SW 247 0 min 0,0 UV-I 3,7 C 5,3 C 2,7 km/h (1 Bft)
02.12.2011 18:25 5,6 C 12,6 C 5,5 C 5,5 C 5,3 C 0,0 C 87 % 92 % 0 % 1015,4 hPa 0,0 l/m 2,4 km/h (1 Bft) SW 225 0 min 0,0 UV-I 3,6 C 5,3 C 2,4 km/h (1 Bft)
02.12.2011 18:30 5,6 C 12,6 C 5,5 C 5,5 C 5,4 C 0,0 C 87 % 93 % 0 % 1015,4 hPa 0,0 l/m 2,7 km/h (1 Bft) W-SW 247 0 min 0,0 UV-I 3,6 C 5,4 C 4,8 km/h (1 Bft)
02.12.2011 18:35 5,6 C 12,6 C 5,5 C 5,5 C 5,4 C 0,0 C 88 % 93 % 0 % 1015,4 hPa 0,0 l/m 2,4 km/h (1 Bft) W-SW 247 0 min 0,0 UV-I 3,8 C 5,4 C 2,4 km/h (1 Bft)
02.12.2011 18:40 5,5 C 12,6 C 5,5 C 5,4 C 5,3 C 0,0 C 88 % 93 % 0 % 1015,8 hPa 0,0 l/m 2,1 km/h (1 Bft) SW 225 0 min 0,0 UV-I 3,7 C 5,3 C 2,3 km/h (1 Bft)
02.12.2011 18:45 5,5 C 12,6 C 5,5 C 5,5 C 5,4 C 0,0 C 88 % 93 % 0 % 1015,8 hPa 0,0 l/m 1,4 km/h (1 Bft) W-SW 247 0 min 0,0 UV-I 3,7 C 5,4 C 1,8 km/h (1 Bft)
02.12.2011 18:50 5,5 C 12,6 C 5,5 C 5,5 C 5,4 C 0,0 C 88 % 93 % 0 % 1015,8 hPa 0,0 l/m 1,6 km/h (1 Bft) W-SW 247 0 min 0,0 UV-I 3,7 C 5,4 C 0,0 km/h (0 Bft)
02.12.2011 18:55 5,5 C 12,6 C 5,5 C 5,5 C 5,4 C 0,0 C 88 % 93 % 0 % 1015,8 hPa 0,0 l/m 1,4 km/h (1 Bft) S 180 0 min 0,0 UV-I 3,7 C 5,4 C 0,0 km/h (0 Bft)
02.12.2011 19:00 5,5 C 12,6 C 5,5 C 5,5 C 5,4 C 0,0 C 88 % 93 % 0 % 1016,8 hPa 0,0 l/m 0,8 km/h (0 Bft) W-SW 247 0 min 0,0 UV-I 3,7 C 5,4 C 0,0 km/h (0 Bft)
02.12.2011 19:10 5,4 C 12,6 C 5,6 C 5,4 C 5,3 C 0,0 C 88 % 93 % 0 % 1016,8 hPa 0,0 l/m 0,0 km/h (0 Bft) N 0 0 min 0,0 UV-I 3,6 C 5,3 C 0,0 km/h (0 Bft)
02.12.2011 19:20 5,5 C 12,6 C 5,5 C 5,5 C 5,4 C 0,0 C 88 % 93 % 0 % 1016,9 hPa 0,0 l/m 0,0 km/h (0 Bft) S-SO 157 0 min 0,0 UV-I 3,7 C 5,4 C 0,0 km/h (0 Bft)
02.12.2011 19:25 5,5 C 12,5 C 5,6 C 5,4 C 5,3 C 0,0 C 88 % 93 % 0 % 1016,9 hPa 0,0 l/m 0,0 km/h (0 Bft) S-SO 157 0 min 0,0 UV-I 3,7 C 5,3 C 0,0 km/h (0 Bft)
02.12.2011 19:30 5,5 C 12,5 C 5,5 C 5,4 C 5,3 C 0,0 C 88 % 93 % 0 % 1016,9 hPa 0,0 l/m 0,0 km/h (0 Bft) W-SW 247 0 min 0,0 UV-I 3,7 C 5,3 C 0,0 km/h (0 Bft)
02.12.2011 19:35 5,5 C 12,5 C 5,5 C 5,4 C 5,2 C 0,0 C 88 % 93 % 0 % 1016,9 hPa 0,0 l/m 0,0 km/h (0 Bft) W 270 0 min 0,0 UV-I 3,7 C 5,2 C 0,0 km/h (0 Bft)
02.12.2011 19:40 5,3 C 12,5 C 5,5 C 5,2 C 5,1 C 0,0 C 88 % 93 % 0 % 1016,4 hPa 0,0 l/m 0,5 km/h (0 Bft) W 270 0 min 0,0 UV-I 3,5 C 5,1 C 2,7 km/h (1 Bft)
02.12.2011 19:45 5,3 C 12,5 C 5,4 C 5,2 C 5,1 C 0,0 C 88 % 93 % 0 % 1016,4 hPa 0,0 l/m 1,6 km/h (1 Bft) SW 225 0 min 0,0 UV-I 3,5 C 5,1 C 3,4 km/h (1 Bft)
02.12.2011 19:50 5,3 C 12,5 C 5,3 C 5,2 C 5,0 C 0,0 C 88 % 93 % 0 % 1016,4 hPa 0,0 l/m 2,4 km/h (1 Bft) W-SW 247 0 min 0,0 UV-I 3,5 C 5,0 C 3,4 km/h (1 Bft)
02.12.2011 19:55 5,4 C 12,5 C 5,3 C 5,3 C 5,0 C 0,0 C 88 % 93 % 0 % 1016,4 hPa 0,0 l/m 1,9 km/h (1 Bft) W-SW 247 0 min 0,0 UV-I 3,6 C 5,0 C 2,3 km/h (1 Bft)
02.12.2011 20:00 5,3 C 12,5 C 5,2 C 5,2 C 4,9 C 0,0 C 88 % 93 % 0 % 1016,8 hPa 0,0 l/m 1,9 km/h (1 Bft) W-SW 247 0 min 0,0 UV-I 3,5 C 4,9 C 3,2 km/h (1 Bft)
02.12.2011 20:10 5,2 C 12,5 C 5,2 C 5,0 C 4,7 C 0,0 C 87 % 93 % 0 % 1016,8 hPa 0,0 l/m 2,1 km/h (1 Bft) N 0 0 min 0,0 UV-I 3,2 C 4,7 C 3,1 km/h (1 Bft)
02.12.2011 20:20 5,2 C 12,4 C 5,1 C 5,0 C 4,5 C 0,0 C 87 % 93 % 0 % 1016,9 hPa 0,0 l/m 0,8 km/h (0 Bft) W-SW 247 0 min 0,0 UV-I 3,2 C 4,5 C 0,0 km/h (0 Bft)
02.12.2011 20:25 5,0 C 12,4 C 5,0 C 4,8 C 4,3 C 0,0 C 87 % 93 % 0 % 1016,9 hPa 0,0 l/m 0,0 km/h (0 Bft) S 180 0 min 0,0 UV-I 3,0 C 4,3 C 0,0 km/h (0 Bft)
02.12.2011 20:30 5,0 C 12,4 C 4,9 C 4,7 C 4,2 C 0,0 C 87 % 93 % 0 % 1016,9 hPa 0,0 l/m 0,2 km/h (0 Bft) W-SW 247 0 min 0,0 UV-I 3,0 C 4,2 C 1,8 km/h (1 Bft)
02.12.2011 20:35 4,9 C 12,4 C 4,8 C 4,6 C 4,1 C 0,0 C 87 % 93 % 0 % 1016,9 hPa 0,0 l/m 0,2 km/h (0 Bft) S-SO 157 0 min 0,0 UV-I 2,9 C 4,1 C 0,0 km/h (0 Bft)
02.12.2011 20:40 4,9 C 12,4 C 4,7 C 4,6 C 4,0 C 0,0 C 87 % 93 % 0 % 1017,6 hPa 0,0 l/m 0,2 km/h (0 Bft) SO 135 0 min 0,0 UV-I 2,9 C 4,0 C 0,0 km/h (0 Bft)
02.12.2011 20:45 4,7 C 12,4 C 4,7 C 4,4 C 3,9 C 0,0 C 87 % 93 % 0 % 1017,6 hPa 0,0 l/m 0,0 km/h (0 Bft) W-SW 247 0 min 0,0 UV-I 2,7 C 3,9 C 0,0 km/h (0 Bft)
02.12.2011 20:50 4,6 C 12,4 C 4,6 C 4,4 C 3,9 C 0,0 C 87 % 93 % 0 % 1017,6 hPa 0,0 l/m 0,0 km/h (0 Bft) W-SW 247 0 min 0,0 UV-I 2,6 C 3,9 C 0,0 km/h (0 Bft)
02.12.2011 20:55 4,6 C 12,4 C 4,5 C 4,3 C 3,8 C 0,0 C 88 % 93 % 0 % 1017,6 hPa 0,0 l/m 0,0 km/h (0 Bft) SW 225 0 min 0,0 UV-I 2,8 C 3,8 C 0,0 km/h (0 Bft)
02.12.2011 21:00 4,5 C 12,3 C 4,5 C 4,3 C 3,8 C 0,0 C 88 % 93 % 0 % 1017,7 hPa 0,0 l/m 0,0 km/h (0 Bft) SW 225 0 min 0,0 UV-I 2,7 C 3,8 C 0,0 km/h (0 Bft)
02.12.2011 21:10 4,5 C 12,3 C 4,4 C 4,2 C 3,7 C 0,0 C 88 % 93 % 0 % 1017,7 hPa 0,0 l/m 0,2 km/h (0 Bft) N 0 0 min 0,0 UV-I 2,7 C 3,7 C 2,7 km/h (1 Bft)
02.12.2011 21:20 4,3 C 12,3 C 4,3 C 4,1 C 3,6 C 0,0 C 88 % 93 % 0 % 1017,2 hPa 0,0 l/m 0,3 km/h (0 Bft) W-SW 247 0 min 0,0 UV-I 2,5 C 3,6 C 0,0 km/h (0 Bft)
02.12.2011 21:25 4,3 C 12,3 C 4,3 C 4,0 C 3,5 C 0,0 C 88 % 93 % 0 % 1017,2 hPa 0,0 l/m 1,1 km/h (1 Bft) W 270 0 min 0,0 UV-I 2,5 C 3,5 C 3,2 km/h (1 Bft)
02.12.2011 21:30 4,2 C 12,3 C 4,2 C 4,0 C 3,5 C 0,0 C 88 % 93 % 0 % 1017,2 hPa 0,0 l/m 1,9 km/h (1 Bft) SW 225 0 min 0,0 UV-I 2,4 C 3,5 C 2,3 km/h (1 Bft)
02.12.2011 21:35 4,3 C 12,3 C 4,3 C 4,0 C 3,4 C 0,0 C 88 % 93 % 0 % 1017,2 hPa 0,0 l/m 1,6 km/h (1 Bft) W-SW 247 0 min 0,0 UV-I 2,5 C 3,4 C 0,0 km/h (0 Bft)
02.12.2011 21:40 4,2 C 12,3 C 4,2 C 3,9 C 3,3 C 0,0 C 88 % 93 % 0 % 1017,3 hPa 0,0 l/m 1,0 km/h (0 Bft) W 270 0 min 0,0 UV-I 2,4 C 3,3 C 2,4 km/h (1 Bft)
02.12.2011 21:45 4,2 C 12,3 C 4,3 C 4,0 C 3,5 C 0,0 C 88 % 93 % 0 % 1017,3 hPa 0,0 l/m 1,3 km/h (1 Bft) W-SW 247 0 min 0,0 UV-I 2,4 C 3,5 C 2,6 km/h (1 Bft)
02.12.2011 21:50 4,3 C 12,3 C 4,2 C 4,1 C 3,7 C 0,0 C 88 % 93 % 0 % 1017,3 hPa 0,0 l/m 1,3 km/h (1 Bft) SW 225 0 min 0,0 UV-I 2,5 C 3,7 C 1,8 km/h (1 Bft)
02.12.2011 21:55 4,2 C 12,3 C 4,1 C 4,0 C 3,6 C 0,0 C 88 % 93 % 0 % 1017,3 hPa 0,0 l/m 0,5 km/h (0 Bft) W-SW 247 0 min 0,0 UV-I 2,4 C 3,6 C 0,0 km/h (0 Bft)
02.12.2011 22:00 4,1 C 12,3 C 4,1 C 3,9 C 3,5 C 0,0 C 88 % 93 % 0 % 1017,4 hPa 0,0 l/m 0,0 km/h (0 Bft) S 180 0 min 0,0 UV-I 2,3 C 3,5 C 0,0 km/h (0 Bft)
02.12.2011 22:15 3,9 C 12,2 C 3,8 C 3,5 C 2,8 C 0,0 C 88 % 93 % 0 % 1017,4 hPa 0,0 l/m 0,0 km/h (0 Bft) W 270 0 min 0,0 UV-I 2,1 C 2,8 C 0,0 km/h (0 Bft)
02.12.2011 22:18 3,9 C 12,2 C 3,8 C 3,5 C 2,8 C 0,0 C 88 % 93 % 0 % 1017,4 hPa 0,0 l/m 0,0 km/h (0 Bft) W 270 0 min 0,0 UV-I 2,1 C 2,8 C 0,0 km/h (0 Bft)
02.12.2011 22:25 3,6 C 12,2 C 3,5 C 3,3 C 2,6 C 0,0 C 88 % 93 % 0 % 1017,2 hPa 0,0 l/m 0,0 km/h (0 Bft) W 270 0 min 0,0 UV-I 1,8 C 2,6 C 0,0 km/h (0 Bft)
02.12.2011 22:30 3,5 C 12,2 C 3,5 C 3,2 C 2,6 C 0,0 C 88 % 93 % 0 % 1017,2 hPa 0,0 l/m 0,0 km/h (0 Bft) W 270 0 min 0,0 UV-I 1,7 C 2,6 C 0,0 km/h (0 Bft)
02.12.2011 22:35 3,5 C 12,2 C 3,4 C 3,2 C 2,6 C 0,0 C 88 % 93 % 0 % 1017,2 hPa 0,0 l/m 0,0 km/h (0 Bft) W 270 0 min 0,0 UV-I 1,7 C 2,6 C 0,0 km/h (0 Bft)
02.12.2011 22:40 3,5 C 12,2 C 3,5 C 3,2 C 2,6 C 0,0 C 88 % 94 % 0 % 1017,1 hPa 0,0 l/m 0,0 km/h (0 Bft) W 270 0 min 0,0 UV-I 1,7 C 2,6 C 0,0 km/h (0 Bft)
02.12.2011 22:45 3,5 C 12,1 C 3,4 C 3,1 C 2,3 C 0,0 C 88 % 93 % 0 % 1017,1 hPa 0,0 l/m 0,0 km/h (0 Bft) S-SW 202 0 min 0,0 UV-I 1,7 C 2,3 C 0,0 km/h (0 Bft)
02.12.2011 22:50 3,3 C 12,1 C 3,3 C 2,9 C 2,0 C 0,0 C 88 % 93 % 0 % 1017,1 hPa 0,0 l/m 0,0 km/h (0 Bft) W-SW 247 0 min 0,0 UV-I 1,5 C 2,0 C 0,0 km/h (0 Bft)
02.12.2011 22:55 3,3 C 12,2 C 3,2 C 2,8 C 1,9 C 0,0 C 89 % 93 % 0 % 1017,1 hPa 0,0 l/m 0,0 km/h (0 Bft) O-SO 112 0 min 0,0 UV-I 1,7 C 1,9 C 1,9 km/h (1 Bft)
02.12.2011 23:00 3,2 C 12,2 C 3,3 C 2,8 C 1,9 C 0,0 C 89 % 93 % 0 % 1017,7 hPa 0,0 l/m 0,5 km/h (0 Bft) SW 225 0 min 0,0 UV-I 1,6 C 1,9 C 4,7 km/h (1 Bft)
02.12.2011 23:04 3,3 C 12,2 C 3,3 C 2,9 C 2,1 C 0,0 C 89 % 93 % 0 % 1017,7 hPa 0,0 l/m 1,8 km/h (1 Bft) S 180 0 min 0,0 UV-I 1,7 C 2,1 C 0,0 km/h (0 Bft)
02.12.2011 23:09 3,2 C 12,2 C 3,3 C 2,8 C 2,0 C 0,0 C 89 % 93 % 0 % 1017,7 hPa 0,0 l/m 1,6 km/h (1 Bft) W-SW 247 0 min 0,0 UV-I 1,6 C 2,0 C 0,0 km/h (0 Bft)
02.12.2011 23:14 3,1 C 12,2 C 3,1 C 2,7 C 1,8 C 0,0 C 89 % 93 % 0 % 1017,7 hPa 0,0 l/m 0,3 km/h (0 Bft) W-SW 247 0 min 0,0 UV-I 1,5 C 1,8 C 0,0 km/h (0 Bft)
02.12.2011 23:21 2,9 C 12,0 C 2,9 C 2,4 C 1,5 C 0,0 C 89 % 93 % 0 % 1018,0 hPa 0,0 l/m 0,3 km/h (0 Bft) W 270 0 min 0,0 UV-I 1,3 C 1,5 C 0,0 km/h (0 Bft)
02.12.2011 23:25 2,8 C 12,0 C 2,8 C 2,3 C 1,3 C 0,0 C 89 % 93 % 0 % 1018,0 hPa 0,0 l/m 0,0 km/h (0 Bft) NW 315 0 min 0,0 UV-I 1,2 C 1,3 C 0,0 km/h (0 Bft)
02.12.2011 23:30 2,6 C 12,0 C 2,7 C 2,1 C 1,2 C 0,0 C 89 % 93 % 0 % 1018,0 hPa 0,0 l/m 0,0 km/h (0 Bft) NW 315 0 min 0,0 UV-I 1,0 C 1,2 C 0,0 km/h (0 Bft)
02.12.2011 23:35 2,5 C 12,0 C 2,6 C 2,0 C 1,1 C 0,0 C 89 % 93 % 0 % 1018,0 hPa 0,0 l/m 0,0 km/h (0 Bft) NW 315 0 min 0,0 UV-I 0,9 C 1,1 C 0,0 km/h (0 Bft)
02.12.2011 23:40 2,4 C 12,0 C 2,5 C 2,0 C 1,1 C 0,0 C 89 % 93 % 0 % 1017,6 hPa 0,0 l/m 0,0 km/h (0 Bft) NW 315 0 min 0,0 UV-I 0,8 C 1,1 C 0,0 km/h (0 Bft)
02.12.2011 23:45 2,4 C 12,0 C 2,5 C 2,0 C 1,1 C 0,0 C 89 % 93 % 0 % 1017,6 hPa 0,0 l/m 0,0 km/h (0 Bft) NW 315 0 min 0,0 UV-I 0,8 C 1,1 C 0,0 km/h (0 Bft)
02.12.2011 23:50 2,3 C 12,0 C 2,3 C 1,9 C 1,1 C 0,0 C 89 % 93 % 0 % 1017,6 hPa 0,0 l/m 0,0 km/h (0 Bft) NW 315 0 min 0,0 UV-I 0,7 C 1,1 C 0,0 km/h (0 Bft)
02.12.2011 23:55 2,2 C 12,0 C 2,3 C 1,8 C 0,9 C 0,0 C 89 % 93 % 0 % 1017,6 hPa 0,0 l/m 0,0 km/h (0 Bft) SW 225 0 min 0,0 UV-I 0,6 C 0,9 C 2,6 km/h (1 Bft)
_ Min-Zeit 23:55 00:00 23:50 23:55 23:55 00:00 13:50 12:40 00:00 12:20 - 19:10 - - - 00:00 23:55 23:55 16:45
Minimum _ 2,2 C 10,4 C 2,3 C 1,8 C 0,9 C 0,0 C 60 % 63 % 0 % 1009,9 hPa - 0,0 km/h (0 Bft) - - - 0,0 UV-I 0,6 C 0,9 C 0,0 km/h (0 Bft)
_ Max-Zeit 13:40 17:00 13:35 12:30 12:30 12:20 22:55 22:40 12:20 23:21 16:35 13:55 - - 00:00 00:00 13:40 12:30 13:40
Maximum _ 14,1 C 12,7 C 13,7 C 14,9 C 14,9 C 1,4 C 89 % 94 % 37 % 1018,0 hPa 0,7 l/m 19,3 km/h
W-SW (3 Bft)
- - 0 min 0,0 UV-I 6,7 C 14,9 C 34,4 km/h
W-SW (5 Bft)
Durchschnitt _ 9,7 C 11,6 C 9,3 C 9,6 C 9,2 C 0,1 C 73 % 77 % 2 % 1013,2 hPa #1,4 l/m 6,2 km/h (2 Bft) W-SW - #0 min. 0,0 UV-I 4,9 C 9,1 C 8,3 km/h (2 Bft)
2011 www.wetterstation-wechselburg.de